Location: Unspecified
(0.0000°N, 0.0000°E)
Time: 01:18:00
(UTC+00:00)

SRMSAT - Pass Details

Date: 11 December 2017
Orbit: 848 x 866 km, 20.0° (Epoch: 19 July)

Event Time Altitude Azimuth Distance (km) Brightness Sun altitude
Rises 20:49:14 0° 234° (SW) 3,397 ? -39.7°
Reaches altitude 10° 20:54:45 10° 193° (SSW) 2,463 ? -40.8°
Enters shadow 20:55:32 10° 185° (S) 2,446 ? -41.0°
